Location: Prairie View Elementary School
(39.8322°N, 99.5698°W)
Time: 07:35:09
(UTC+00:00)

Cosmos 1900 - Pass Details

Date: 08 December 2019
Orbit: 692 x 730 km, 66.1° (Epoch: 25 January)

Event Time Altitude Azimuth Distance (km) Brightness Sun altitude
Rises 01:02:44 0° 330° (NNW) 3,076 7.8 -20.4°
Reaches altitude 10° 01:05:05 10° 332° (NNW) 2,153 7.0 -20.8°
Maximum altitude 01:09:59 82° 60° (ENE) 704 4.1 -21.7°
Enters shadow 01:12:35 28° 145° (SE) 1,291 5.4 -22.2°
